Location: ??????
(41.3164°N, 22.6615°E)
Time: 00:57:00
(UTC+00:00)

SKYMED 2 - Pass Details

Date: 16 October 2021
Orbit: 621 x 623 km, 97.9° (Epoch: 02 December)

Event Time Altitude Azimuth Distance (km) Brightness Sun altitude
Rises 16:14:19 0° 18° (NNE) 2,913 6.8 -5.9°
Reaches altitude 10° 16:16:35 10° 23° (NNE) 2,002 5.9 -6.3°
Maximum altitude 16:20:49 50° 100° (E) 794 3.8 -7.1°
Drops below altitude 10° 16:25:01 10° 176° (S) 1,985 6.2 -7.9°
Sets 16:27:15 0° 181° (S) 2,886 7.1 -8.3°
